sat.trackr.live / text

‹ back to catalog

STARLINK-31506

NORAD 59259 · 2024-050F

PAYLOAD ACTIVE UNKNOWN

§ Identity

Operator
Country
US
Launch date
2024-03-19
Launch site
AFWTR
Launch vehicle
Mass (kg)
RCS (m²)

Purposes: comms

External: N2YO · Heavens-Above · Gunter

§ Orbital elements

Epoch: 2026-09-20T17:58:11.622432Z

Period
93.85 min
Inclination
53.1586°
Eccentricity
0.0001142
Mean motion
15.34433822 rev/d
Perigee alt
461.8 km
Apogee alt
463.4 km
Semi-major
6,840.7 km
B*
3.7131e-4
RAAN
354.2132°
Arg perigee
106.2940°
Mean anomaly
253.8188°
Rev number
14,042

§ Raw data

STARLINK-315061 59259U 24050F   26263.74874563  .00012203  00000+0  37131-3 0  99992 59259  53.1586 354.2132 0001142 106.2940 253.8188 15.34433822140421

JSON: /api/v1/satellites/59259 · /tle

For live sub-satellite position, see the globe view (requires WebGL).

§ Visibility from observer

Set your observer location to see the next 7 days of passes ≥ 10°. The values pass through the URL so the page stays shareable.

No JS? Fill the form by hand. The geolocation button needs JavaScript.